Temp
-9 -9 -9 -10 -10 -10 -11 -11 -11 -11 -11 -11 -11 -11 -11 -11 -11 -11 -11 -11 -11 -11 -11 -11 -11 -11 -11 -11 -10 -11 -11 -11 -11 -11 -11 -10 -10 -10 -9 -9 -9 -9 -9 -9 -8 -8 -8 -8 -8
-9 -9 -9 -10 -10 -10 -11 -11 -11 -11 -11 -11 -11 -11 -11 -11 -11 -11 -11 -11 -11 -11 -11 -11 -11 -11 -11 -10 -10 -10 -10 -10 -11 -11 -11 -11 -10 -10 -10 -9 -9 -9 -9 -9 -9 -9 -9 -8 -8
-9 -9 -9 -9 -10 -10 -11 -11 -11 -11 -11 -11 -11 -11 -11 -11 -11 -11 -11 -11 -11 -11 -11 -11 -11 -11 -11 -11 -11 -11 -11 -11 -11 -11 -11 -11 -11 -10 -10 -10 -10 -10 -10 -10 -9 -9 -9 -9 -9
-9 -9 -9 -9 -10 -10 -10 -10 -11 -11 -11 -11 -11 -11 -11 -11 -11 -11 -11 -11 -11 -11 -11 -11 -11 -11 -11 -11 -11 -11 -11 -11 -11 -11 -11 -11 -11 -10 -10 -11 -10 -10 -10 -10 -10 -10 -10 -10 -10
-9 -9 -9 -9 -10 -10 -10 -10 -10 -11 -11 -11 -11 -11 -11 -11 -11 -11 -11 -11 -11 -11 -11 -11 -11 -11 -11 -11 -11 -11 -11 -11 -11 -11 -11 -11 -11 -11 -11 -11 -11 -11 -11 -11 -11 -11 -11 -10 -10
-9 -9 -10 -10 -10 -10 -10 -10 -10 -10 -11 -11 -11 -11 -11 -11 -11 -11 -11 -11 -11 -10 -10 -10 -11 -11 -11 -11 -11 -11 -11 -11 -11 -11 -11 -11 -11 -11 -11 -11 -11 -11 -11 -11 -11 -11 -11 -11 -11
-9 -9 -10 -10 -10 -10 -10 -10 -10 -10 -10 -11 -10 -10 -10 -10 -11 -11 -11 -11 -11 -11 -11 -11 -10 -10 -10 -11 -11 -11 -11 -11 -11 -11 -11 -11 -11 -11 -11 -11 -11 -11 -11 -11 -11 -11 -11 -11 -11
-10 -10 -10 -10 -10 -10 -10 -10 -10 -10 -10 -11 -11 -11 -10 -10 -10 -10 -10 -10 -10 -11 -11 -11 -11 -11 -11 -11 -11 -11 -11 -11 -11 -11 -11 -11 -11 -11 -11 -11 -11 -11 -11 -11 -11 -11 -11 -11 -11
-10 -10 -10 -10 -10 -10 -10 -10 -10 -10 -10 -11 -11 -11 -11 -11 -11 -11 -11 -11 -11 -11 -11 -11 -11 -11 -11 -11 -11 -11 -11 -10 -11 -11 -11 -11 -11 -11 -11 -11 -11 -11 -11 -11 -11 -11 -11 -11 -11
-10 -10 -10 -10 -10 -10 -10 -10 -10 -10 -11 -11 -11 -11 -11 -11 -11 -11 -10 -10 -10 -10 -10 -10 -10 -10 -10 -10 -11 -11 -11 -11 -11 -11 -11 -11 -11 -11 -11 -11 -11 -11 -11 -11 -11 -12 -11 -11 -11
-10 -10 -10 -10 -10 -10 -10 -10 -10 -10 -11 -11 -11 -11 -11 -11 -11 -11 -10 -11 -11 -10 -10 -10 -10 -10 -10 -10 -10 -11 -11 -11 -11 -11 -11 -11 -11 -11 -11 -11 -11 -11 -11 -11 -11 -11 -12 -12 -12
-10 -10 -10 -10 -10 -10 -10 -10 -10 -11 -11 -11 -11 -11 -11 -11 -11 -11 -11 -11 -10 -10 -10 -10 -10 -10 -10 -10 -10 -10 -10 -11 -11 -10 -10 -10 -10 -10 -11 -11 -11 -11 -11 -11 -11 -12 -12 -12 -12
-10 -10 -10 -10 -10 -10 -10 -10 -10 -11 -10 -10 -11 -11 -11 -11 -10 -10 -10 -10 -10 -10 -10 -10 -10 -10 -10 -10 -10 -9 -9 -9 -10 -10 -10 -10 -10 -10 -10 -10 -10 -10 -11 -11 -11 -12 -12 -12 -12
-10 -10 -10 -10 -10 -10 -11 -10 -10 -10 -10 -10 -10 -10 -10 -10 -10 -10 -10 -10 -10 -10 -10 -10 -10 -10 -10 -10 -10 -10 -10 -10 -9 -10 -10 -10 -10 -10 -10 -10 -11 -11 -11 -11 -11 -11 -12 -12 -12
-10 -10 -10 -10 -11 -10 -10 -10 -10 -10 -10 -10 -10 -10 -10 -10 -10 -10 -10 -10 -10 -10 -10 -10 -10 -10 -10 -10 -10 -10 -10 -10 -10 -10 -10 -10 -10 -10 -10 -10 -10 -10 -10 -11 -11 -11 -12 -12 -12
-10 -10 -10 -10 -11 -10 -10 -11 -10 -10 -10 -10 -10 -10 -10 -10 -10 -10 -10 -10 -10 -10 -10 -10 -10 -10 -10 -10 -10 -10 -10 -10 -10 -10 -10 -11 -11 -11 -11 -11 -11 -10 -10 -10 -11 -11 -11 -12 -12
-10 -10 -11 -11 -11 -11 -10 -10 -10 -10 -10 -10 -10 -10 -10 -10 -10 -10 -10 -10 -10 -10 -10 -10 -10 -10 -10 -10 -10 -10 -10 -10 -10 -11 -11 -11 -11 -11 -11 -11 -11 -11 -11 -12 -11 -12 -12 -12 -12
-11 -10 -11 -11 -11 -11 -11 -10 -10 -10 -10 -10 -10 -10 -10 -10 -10 -10 -10 -10 -10 -10 -9 -10 -10 -11 -11 -11 -11 -11 -11 -11 -11 -11 -11 -11 -11 -11 -12 -12 -12 -12 -12 -12 -12 -13 -13 -13 -13
-11 -11 -11 -11 -11 -11 -11 -10 -10 -10 -10 -10 -10 -10 -10 -10 -10 -10 -10 -10 -10 -10 -10 -10 -10 -11 -11 -11 -11 -11 -11 -11 -11 -11 -12 -12 -13 -13 -12 -12 -13 -13 -13 -13 -13 -13 -13 -14 -14
-11 -11 -11 -11 -11 -11 -10 -10 -10 -10 -10 -10 -10 -10 -10 -10 -10 -10 -10 -10 -10 -10 -10 -10 -11 -11 -11 -11 -11 -11 -11 -11 -12 -12 -13 -13 -13 -13 -13 -13 -14 -14 -14 -14 -14 -14 -14 -15 -15
-12 -11 -12 -11 -11 -11 -10 -9 -10 -10 -10 -10 -10 -10 -10 -10 -10 -10 -11 -11 -10 -10 -10 -10 -10 -10 -11 -11 -11 -11 -12 -12 -13 -13 -13 -13 -13 -13 -14 -14 -14 -14 -15 -15 -15 -16 -16 -16 -17
-12 -12 -12 -12 -11 -11 -10 -9 -9 -10 -11 -10 -10 -10 -10 -10 -10 -10 -11 -11 -11 -10 -10 -10 -11 -11 -11 -12 -12 -12 -12 -13 -13 -13 -14 -14 -14 -14 -14 -15 -15 -15 -15 -16 -16 -16 -17 -17 -17
-12 -12 -12 -12 -12 -11 -11 -10 -9 -10 -10 -11 -10 -10 -10 -11 -11 -11 -11 -11 -11 -11 -11 -11 -11 -12 -12 -12 -12 -13 -13 -13 -13 -14 -14 -14 -14 -15 -15 -15 -16 -16 -16 -17 -17 -17 -18 -18 -18
-12 -12 -12 -12 -12 -11 -11 -11 -9 -9 -11 -11 -11 -11 -11 -11 -11 -11 -12 -11 -12 -11 -11 -12 -12 -12 -12 -13 -13 -14 -14 -14 -14 -14 -15 -15 -15 -16 -16 -16 -17 -17 -17 -18 -18 -19 -19 -19 -20
-13 -13 -13 -12 -11 -11 -11 -10 -9 -10 -11 -11 -11 -11 -11 -12 -12 -12 -12 -12 -12 -12 -12 -12 -12 -13 -13 -13 -14 -14 -14 -15 -15 -15 -16 -16 -16 -16 -17 -17 -18 -18 -18 -19 -19 -20 -20 -21 -21
-13 -13 -13 -13 -12 -11 -11 -10 -10 -11 -11 -11 -12 -12 -12 -12 -12 -12 -12 -12 -12 -12 -12 -13 -13 -13 -13 -15 -15 -15 -15 -16 -16 -16 -16 -16 -17 -17 -18 -18 -19 -19 -20 -20 -21 -21 -22 -22 -22
-13 -13 -14 -13 -13 -12 -11 -10 -10 -11 -11 -12 -12 -12 -12 -13 -13 -13 -13 -12 -12 -13 -13 -13 -13 -14 -15 -16 -15 -16 -16 -17 -17 -17 -17 -17 -18 -18 -18 -19 -20 -20 -21 -22 -22 -22 -23 -23 -23
-13 -13 -14 -13 -13 -12 -11 -11 -10 -11 -12 -12 -12 -13 -13 -13 -13 -13 -13 -13 -13 -13 -13 -14 -15 -16 -16 -16 -16 -16 -16 -17 -17 -17 -17 -18 -18 -19 -19 -20 -21 -22 -22 -23 -23 -23 -24 -24 -24
-14 -13 -14 -14 -13 -13 -12 -11 -10 -11 -11 -12 -12 -13 -13 -13 -13 -13 -13 -13 -13 -13 -14 -16 -16 -16 -16 -16 -16 -16 -16 -17 -17 -18 -18 -19 -19 -20 -21 -22 -22 -23 -23 -24 -24 -24 -25 -25 -25
-13 -13 -13 -13 -12 -13 -13 -10 -12 -11 -12 -12 -13 -13 -13 -13 -13 -13 -13 -14 -14 -15 -16 -16 -16 -16 -16 -16 -16 -17 -17 -17 -18 -19 -19 -20 -21 -21 -22 -23 -24 -24 -24 -25 -25 -25 -25 -26 -26
Height
5870 5870 5869 5869 5871 5868 5868 5869 5867 5866 5866 5865 5864 5864 5864 5863 5863 5865 5863 5862 5862 5862 5862 5862 5862 5862 5863 5863 5862 5862 5863 5863 5863 5864 5866 5867 5867 5868 5869 5870 5869 5870 5870 5871 5871 5872 5872 5871 5872
5871 5871 5870 5870 5870 5869 5870 5869 5868 5867 5866 5866 5865 5864 5864 5864 5864 5864 5864 5863 5863 5863 5863 5863 5863 5863 5863 5863 5863 5863 5863 5864 5865 5865 5865 5866 5866 5867 5868 5868 5868 5869 5869 5869 5870 5870 5870 5871 5870
5872 5871 5872 5871 5870 5871 5871 5870 5869 5868 5867 5866 5866 5865 5865 5866 5865 5865 5864 5864 5863 5863 5863 5863 5863 5864 5864 5865 5865 5865 5865 5865 5865 5866 5866 5866 5866 5867 5867 5868 5868 5868 5868 5868 5868 5868 5869 5868 5868
5873 5872 5873 5872 5871 5871 5870 5870 5869 5868 5867 5866 5866 5866 5866 5865 5865 5865 5864 5864 5863 5863 5863 5863 5864 5864 5863 5864 5864 5865 5865 5865 5865 5866 5866 5866 5867 5867 5867 5867 5867 5867 5867 5867 5867 5868 5868 5867 5867
5873 5873 5872 5872 5872 5871 5871 5870 5869 5868 5867 5865 5865 5865 5865 5865 5865 5865 5864 5863 5863 5863 5863 5863 5863 5864 5864 5864 5865 5865 5864 5865 5865 5865 5865 5866 5866 5866 5866 5866 5867 5867 5867 5866 5866 5866 5866 5865 5865
5873 5873 5873 5873 5872 5871 5870 5870 5869 5868 5867 5865 5864 5864 5864 5864 5864 5864 5864 5863 5863 5863 5863 5863 5863 5862 5863 5863 5863 5864 5865 5865 5865 5866 5866 5866 5866 5865 5866 5866 5866 5866 5865 5865 5864 5864 5863 5864 5863
5872 5872 5872 5872 5872 5871 5870 5869 5869 5868 5867 5866 5865 5865 5864 5864 5863 5863 5863 5863 5863 5862 5862 5863 5862 5862 5862 5862 5862 5863 5863 5864 5864 5865 5865 5866 5866 5866 5866 5865 5864 5864 5863 5863 5862 5862 5861 5860 5859
5871 5871 5871 5871 5871 5870 5869 5868 5868 5867 5866 5866 5865 5864 5865 5864 5863 5863 5863 5862 5862 5862 5862 5862 5862 5862 5862 5862 5861 5861 5860 5861 5861 5862 5862 5861 5861 5861 5862 5863 5863 5863 5862 5861 5860 5859 5858 5857 5856
5869 5870 5870 5869 5869 5868 5867 5866 5866 5866 5865 5865 5864 5864 5863 5863 5862 5861 5861 5861 5861 5861 5860 5860 5859 5859 5859 5859 5860 5860 5860 5860 5859 5859 5858 5858 5858 5858 5858 5858 5857 5857 5857 5857 5857 5857 5855 5854 5853
5867 5867 5867 5867 5866 5865 5865 5864 5864 5864 5864 5863 5862 5862 5861 5861 5861 5860 5860 5860 5859 5859 5858 5858 5858 5857 5857 5857 5857 5857 5857 5857 5857 5857 5857 5857 5856 5855 5854 5854 5854 5853 5852 5852 5851 5851 5850 5850 5849
5864 5864 5863 5864 5863 5862 5862 5862 5862 5861 5861 5861 5860 5859 5859 5859 5859 5859 5858 5858 5858 5857 5856 5856 5855 5855 5854 5854 5854 5855 5855 5855 5855 5854 5853 5853 5852 5852 5851 5850 5849 5849 5848 5848 5847 5846 5845 5844 5843
5861 5861 5860 5859 5859 5858 5858 5858 5859 5858 5858 5858 5858 5857 5857 5856 5857 5856 5856 5856 5856 5855 5854 5854 5853 5853 5853 5852 5852 5852 5852 5852 5851 5851 5851 5850 5849 5848 5846 5845 5844 5843 5843 5843 5842 5840 5839 5838 5837
5857 5857 5856 5855 5855 5855 5855 5855 5855 5855 5854 5854 5855 5854 5854 5853 5853 5853 5853 5853 5853 5852 5852 5851 5851 5850 5850 5849 5849 5849 5848 5846 5846 5846 5845 5845 5844 5844 5843 5842 5841 5839 5838 5836 5835 5834 5833 5832 5830
5852 5852 5851 5851 5851 5850 5850 5850 5851 5850 5850 5850 5851 5850 5850 5850 5850 5850 5850 5850 5850 5849 5848 5847 5846 5846 5844 5845 5845 5846 5846 5845 5844 5843 5842 5841 5840 5838 5836 5835 5834 5833 5833 5832 5830 5828 5826 5825 5823
5847 5847 5847 5846 5846 5846 5845 5846 5846 5846 5846 5846 5846 5845 5845 5845 5846 5846 5846 5846 5845 5845 5844 5842 5841 5841 5840 5840 5840 5840 5840 5840 5840 5839 5838 5836 5835 5833 5832 5830 5828 5826 5825 5824 5822 5820 5817 5817 5815
5842 5842 5841 5841 5840 5841 5840 5840 5841 5840 5841 5841 5841 5842 5842 5841 5841 5841 5840 5840 5839 5838 5838 5838 5838 5837 5836 5836 5836 5835 5835 5834 5833 5831 5830 5829 5828 5827 5826 5823 5821 5819 5817 5816 5814 5812 5809 5807 5804
5836 5837 5836 5835 5834 5834 5834 5834 5836 5835 5836 5836 5836 5837 5836 5837 5836 5836 5836 5836 5836 5835 5834 5834 5834 5833 5833 5833 5831 5830 5828 5826 5825 5824 5823 5823 5822 5820 5817 5815 5813 5811 5809 5807 5804 5802 5800 5796 5793
5828 5830 5830 5829 5829 5827 5829 5829 5830 5830 5831 5831 5831 5831 5831 5831 5831 5831 5831 5831 5830 5830 5830 5830 5829 5829 5829 5828 5827 5826 5823 5821 5819 5817 5815 5812 5810 5809 5807 5805 5803 5801 5798 5795 5793 5790 5788 5786 5783
5822 5823 5824 5822 5821 5820 5821 5823 5823 5824 5824 5824 5824 5824 5825 5825 5825 5824 5824 5824 5824 5824 5824 5824 5824 5824 5824 5822 5821 5820 5819 5817 5815 5813 5810 5807 5804 5799 5795 5793 5790 5787 5787 5783 5780 5777 5774 5772 5770
5815 5815 5817 5814 5812 5811 5813 5814 5817 5815 5818 5817 5817 5817 5818 5817 5817 5817 5817 5817 5817 5817 5817 5818 5818 5817 5816 5815 5813 5812 5810 5808 5806 5803 5801 5797 5793 5791 5789 5784 5780 5776 5773 5770 5767 5764 5762 5759 5756
5808 5807 5809 5806 5804 5804 5803 5806 5808 5810 5808 5810 5809 5810 5810 5810 5811 5811 5811 5811 5810 5809 5809 5809 5809 5808 5808 5807 5805 5803 5801 5799 5797 5794 5790 5787 5784 5780 5776 5772 5768 5763 5759 5756 5752 5748 5746 5743 5740
5798 5798 5800 5799 5796 5796 5793 5793 5800 5802 5802 5802 5802 5802 5802 5803 5803 5803 5802 5801 5802 5802 5802 5802 5801 5800 5799 5798 5795 5793 5791 5788 5785 5782 5779 5774 5771 5767 5763 5759 5754 5750 5746 5742 5738 5735 5731 5727 5724
5789 5790 5791 5790 5789 5785 5786 5785 5790 5794 5795 5793 5793 5794 5795 5795 5795 5795 5795 5794 5793 5794 5793 5793 5792 5791 5790 5787 5785 5783 5779 5777 5773 5770 5766 5762 5758 5754 5751 5746 5741 5735 5730 5726 5721 5717 5713 5709 5705
5780 5781 5781 5780 5778 5771 5780 5780 5779 5782 5787 5785 5785 5785 5786 5786 5786 5785 5786 5786 5785 5784 5784 5784 5783 5781 5779 5776 5773 5770 5767 5764 5761 5758 5754 5749 5745 5740 5735 5730 5725 5719 5715 5709 5704 5699 5694 5690 5687
5772 5772 5770 5767 5765 5767 5768 5769 5771 5771 5777 5777 5777 5777 5777 5777 5777 5777 5777 5776 5775 5774 5774 5773 5771 5770 5767 5764 5761 5756 5752 5749 5746 5743 5739 5734 5730 5725 5719 5714 5708 5702 5697 5691 5685 5680 5676 5671 5666
5761 5762 5761 5756 5756 5758 5756 5755 5760 5764 5765 5767 5769 5769 5769 5768 5768 5768 5768 5767 5766 5765 5763 5762 5760 5757 5754 5751 5746 5742 5738 5734 5731 5727 5722 5717 5713 5707 5701 5695 5689 5683 5676 5671 5666 5661 5655 5652 5646
5749 5748 5755 5748 5747 5743 5744 5747 5750 5753 5755 5755 5757 5759 5759 5760 5759 5759 5758 5756 5755 5754 5752 5749 5747 5745 5741 5735 5731 5728 5725 5719 5715 5711 5705 5700 5694 5688 5682 5676 5670 5663 5657 5652 5648 5642 5637 5631 5625
5740 5739 5740 5739 5736 5733 5734 5735 5738 5742 5742 5743 5746 5747 5749 5749 5749 5748 5747 5746 5744 5741 5738 5735 5732 5728 5725 5720 5716 5713 5709 5705 5700 5694 5687 5681 5675 5669 5663 5657 5650 5644 5638 5632 5627 5622 5616 5610 5605
5728 5725 5726 5726 5725 5723 5723 5726 5727 5727 5731 5734 5735 5736 5737 5737 5737 5736 5734 5732 5730 5728 5725 5721 5717 5713 5709 5705 5701 5698 5694 5689 5683 5676 5669 5662 5655 5649 5644 5637 5631 5625 5620 5614 5607 5601 5595 5589 5584
5710 5713 5712 5712 5714 5714 5714 5716 5715 5716 5719 5721 5723 5726 5726 5726 5724 5723 5720 5718 5715 5712 5709 5706 5702 5698 5694 5691 5687 5682 5678 5672 5663 5656 5649 5643 5637 5630 5623 5617 5612 5606 5600 5594 5587 5580 5574 5567 5561
Wind_Speed
11 13 14 14 13 14 13 12 14 13 12 11 10 8 7 6 6 7 7 9 10 10 11 9 6 6 6 6 6 6 6 5 4 5 8 10 10 10 12 13 14 15 17 17 17 17 16 16 16
10 12 12 13 12 12 9 9 11 11 10 9 10 10 9 9 9 7 6 6 6 7 8 8 9 9 7 5 6 6 6 5 5 4 4 5 7 9 11 12 12 12 13 15 17 18 19 19 19
8 11 12 12 10 8 6 5 6 8 8 5 5 6 9 9 8 7 7 7 7 5 4 5 6 7 7 7 6 3 3 4 5 5 5 5 6 6 7 9 10 10 11 12 14 15 16 17 17
7 9 12 12 8 6 4 3 5 6 6 6 2 2 4 6 7 8 7 6 5 4 4 4 3 3 3 3 4 4 5 5 6 7 7 7 8 8 8 9 11 11 12 12 13 14 15 15 16
5 7 10 12 7 3 2 3 5 6 7 5 4 2 1 2 3 4 4 5 6 6 6 5 4 4 5 4 3 2 3 4 5 6 7 9 10 11 11 12 13 12 12 13 14 14 15 16 18
5 7 9 10 10 4 1 2 4 5 6 3 3 4 4 4 3 2 2 2 3 3 4 5 5 5 5 6 7 7 8 8 8 8 8 8 9 10 11 12 14 15 16 16 17 17 17 17 17
6 8 9 9 9 8 5 3 3 4 4 2 1 2 3 5 5 5 3 3 4 5 5 4 4 5 5 5 6 8 10 11 12 13 15 15 16 15 14 14 15 15 16 16 17 19 20 21 21
9 10 11 11 11 10 7 7 5 5 5 3 2 2 2 3 4 4 3 3 5 6 8 9 9 9 9 10 10 9 9 10 12 14 15 15 15 16 18 20 22 22 21 20 19 20 20 21 22
12 13 13 13 14 13 10 9 8 7 8 8 5 6 6 7 8 8 7 8 8 7 8 7 7 7 8 9 11 12 14 14 14 14 16 17 19 20 20 20 21 22 24 26 28 27 26 25 24
16 17 16 15 16 15 11 11 10 10 9 9 10 8 9 9 9 10 9 9 9 9 8 8 7 7 8 9 10 11 12 14 16 17 18 19 21 22 22 24 26 26 26 27 28 29 30 32 32
19 19 18 18 17 15 12 13 12 12 11 12 11 12 11 11 11 10 10 9 8 9 10 11 11 11 10 9 10 12 15 17 18 19 21 21 22 24 27 27 29 29 29 30 31 32 32 33 33
21 20 21 21 18 14 13 15 14 14 14 14 13 13 13 12 12 12 11 10 10 10 11 12 12 12 11 10 9 9 10 13 16 18 21 23 24 25 28 30 31 32 34 34 35 36 36 37 36
22 22 22 21 18 17 16 17 16 17 16 16 15 14 14 14 13 13 13 13 13 13 13 14 14 13 12 11 11 9 10 12 16 19 22 24 25 25 27 30 33 36 37 38 39 39 40 41 42
24 23 23 21 20 20 19 19 18 20 18 17 16 17 16 15 15 14 15 16 16 15 14 14 14 13 14 14 15 15 14 13 12 16 20 23 25 28 32 35 37 38 38 40 42 42 44 44 44
27 26 25 25 24 22 23 21 20 19 19 18 18 19 19 19 18 18 19 20 20 17 17 18 18 18 18 17 16 17 17 18 18 20 20 20 23 26 28 31 34 38 40 42 45 47 47 46 48
29 28 28 27 27 25 24 22 21 21 20 19 19 20 20 21 21 22 23 22 20 20 20 20 20 19 20 20 19 19 18 21 22 24 25 26 29 31 31 34 36 39 41 44 46 49 52 52 52
30 30 30 29 29 28 26 24 21 24 22 22 23 23 23 23 25 26 25 23 23 23 22 23 25 26 24 24 23 22 22 23 25 26 29 32 34 35 38 39 40 42 44 46 49 50 53 55 57
35 32 30 30 30 30 28 26 24 27 27 26 26 26 26 26 27 27 27 23 23 23 26 28 27 28 28 28 29 28 28 29 29 31 30 31 34 38 40 43 44 47 50 52 54 54 56 57 58
33 33 31 33 32 34 32 31 30 28 28 29 30 28 27 26 28 28 27 24 25 26 28 30 30 31 32 28 30 32 35 37 38 40 42 45 46 46 46 48 50 52 56 58 60 62 62 62 62
37 37 32 33 35 39 36 34 32 33 27 31 31 31 30 30 30 30 29 28 27 28 30 30 30 28 30 33 34 38 42 41 46 47 49 48 49 53 57 57 58 60 63 64 65 67 68 67 66
37 37 34 37 38 40 41 37 35 32 33 30 33 32 32 33 32 33 33 33 31 31 31 32 33 35 36 37 38 40 41 44 47 48 49 52 54 56 61 64 67 67 65 66 66 67 69 69 68
38 39 38 39 41 40 44 43 37 34 33 33 33 33 34 34 34 35 35 33 32 31 30 34 37 38 38 39 40 42 42 45 48 51 55 57 59 61 62 65 67 68 67 67 69 69 70 70 71
41 40 39 41 43 46 45 46 37 34 33 32 33 34 34 35 35 36 36 33 30 30 34 37 40 41 40 42 43 44 45 50 52 54 56 59 61 63 67 68 69 70 70 70 71 72 73 73 74
41 41 42 44 47 53 44 45 42 40 31 35 34 35 34 36 37 38 35 34 33 34 37 40 42 44 46 47 47 48 50 53 55 57 58 59 61 62 65 68 70 72 73 75 76 75 75 75 76
38 38 42 48 52 51 49 45 44 43 35 34 34 34 35 35 34 33 35 35 35 38 40 44 44 46 48 51 51 52 53 53 54 59 60 61 64 68 69 71 74 76 78 79 78 78 75 75 75
47 46 45 50 52 49 50 50 45 40 40 35 34 35 35 35 34 35 35 37 41 43 45 46 48 49 52 51 51 54 55 56 59 61 64 67 70 70 73 76 78 79 79 78 76 75 73 73 74
50 53 46 50 51 55 53 49 47 44 39 38 35 34 34 33 34 36 39 41 44 45 48 50 52 55 53 52 55 57 59 58 61 64 68 71 74 75 78 80 81 80 78 75 75 74 74 76 77
51 53 52 51 53 55 53 51 46 43 43 41 37 36 35 37 40 41 42 45 47 49 50 51 52 51 53 55 57 62 62 62 64 68 73 75 78 80 81 81 81 79 76 74 74 75 76 77 78
51 49 50 51 52 53 54 50 47 47 46 43 42 40 39 39 41 44 47 50 52 53 54 53 53 55 59 61 60 64 66 66 69 73 77 79 81 82 83 80 79 77 75 75 76 77 77 79 80
56 52 51 53 54 52 51 46 51 51 49 47 44 43 42 45 48 51 54 55 55 54 54 57 57 58 62 65 65 66 70 73 74 78 80 81 82 83 81 77 76 75 76 78 79 80 81 81 82
Wind_Direction
57 51 48 47 53 68 77 69 66 73 67 62 56 58 56 58 65 75 76 78 74 73 69 71 71 58 52 54 56 50 43 30 326 280 261 261 266 274 273 273 274 276 275 272 274 280 285 287 290
59 50 46 46 49 71 81 72 69 71 70 65 64 62 63 59 52 47 43 51 65 71 68 62 60 63 60 34 25 19 20 19 12 2 331 288 267 263 269 274 276 277 276 276 277 279 280 280 285
63 50 41 39 48 74 73 65 50 50 51 71 80 72 65 57 55 54 63 58 46 39 53 81 74 59 49 48 43 17 343 339 339 335 331 321 309 294 289 285 280 282 275 275 276 279 281 284 285
56 45 38 36 43 53 61 44 29 19 17 23 47 75 75 62 48 50 52 52 52 50 34 19 20 43 80 85 54 29 18 2 331 316 313 308 304 304 305 303 303 301 296 290 285 281 279 281 281
44 26 27 29 22 37 38 16 17 11 6 8 25 27 48 42 37 46 45 50 45 39 32 16 2 352 342 337 334 332 337 334 334 331 331 319 311 306 305 304 300 297 294 293 292 290 289 285 282
360 1 3 11 9 344 314 344 359 8 13 13 357 24 34 34 26 19 32 28 43 38 32 27 23 13 354 338 327 322 314 309 303 300 302 304 306 308 309 305 298 294 292 292 291 291 290 288 285
327 336 336 343 349 341 289 286 313 329 346 12 322 2 358 357 360 0 9 9 347 339 337 341 345 343 341 340 339 337 333 329 322 317 313 311 308 302 296 295 293 294 297 297 294 289 286 287 286
308 315 319 324 326 327 291 264 270 290 303 312 267 254 271 292 299 298 304 330 338 330 327 327 325 321 321 321 320 315 313 316 319 321 319 317 312 306 305 305 302 299 294 290 287 288 288 285 283
294 302 306 310 312 309 290 259 261 273 283 293 293 276 261 255 253 258 271 289 300 302 299 300 304 307 308 308 312 317 319 321 317 314 312 310 311 310 310 306 300 297 296 296 295 291 285 281 280
291 295 298 300 302 298 279 266 269 270 262 268 277 281 282 275 272 272 277 283 291 296 293 279 279 288 294 299 302 302 304 308 310 311 310 309 306 304 304 303 304 302 301 300 296 292 290 289 287
285 289 292 296 295 287 267 262 278 275 265 262 267 273 275 272 272 272 268 263 274 285 279 275 274 276 277 282 292 300 303 307 309 309 306 301 301 301 304 303 299 297 295 294 295 295 294 292 288
281 284 289 292 285 275 267 265 278 276 271 265 263 271 279 282 275 270 264 272 285 282 285 281 274 275 282 297 310 309 303 300 300 302 304 306 307 305 302 301 301 300 299 298 294 290 289 288 287
278 285 287 286 276 276 271 270 274 274 269 269 269 269 266 266 267 267 268 270 274 277 275 277 277 278 280 277 282 309 320 310 310 310 307 304 303 304 302 305 305 304 301 298 295 292 289 287 285
276 285 286 277 274 278 275 271 272 269 267 268 270 268 264 263 263 267 272 276 274 270 269 269 264 258 255 263 269 278 282 296 305 303 307 308 311 313 312 311 308 304 301 300 297 295 293 290 286
274 281 282 274 273 274 272 272 266 267 267 269 268 266 265 265 267 271 275 277 276 269 257 254 254 257 264 267 266 269 275 280 281 285 288 291 296 298 305 310 311 309 306 301 300 297 294 292 289
273 276 276 272 272 271 267 265 265 266 265 269 268 267 269 269 271 272 272 273 270 267 270 266 267 263 263 266 271 280 287 286 288 290 288 287 285 286 291 298 299 304 304 304 303 295 289 288 288
271 272 270 271 271 267 264 262 263 265 268 270 271 270 268 270 270 270 272 275 279 279 278 274 271 273 276 278 274 270 272 278 283 287 293 296 293 295 294 293 290 291 292 292 293 290 286 283 283
266 267 270 269 262 264 260 260 264 270 269 272 274 269 266 267 267 268 268 274 276 279 276 271 273 276 276 276 279 280 283 285 287 286 288 290 289 293 291 289 292 292 292 289 287 285 284 282 280
269 268 266 266 262 262 259 257 267 266 271 277 277 273 269 269 266 264 263 269 275 277 273 274 276 280 281 289 294 297 298 299 298 292 290 291 290 289 287 290 287 288 286 285 283 284 282 281 280
266 267 265 259 262 261 260 257 258 270 266 275 275 270 267 267 264 260 261 264 270 274 276 279 284 293 294 291 292 295 293 290 291 292 293 293 294 291 288 287 288 288 289 286 285 284 283 283 284
266 263 260 260 262 262 262 259 259 259 270 268 268 265 267 268 271 272 269 271 270 267 269 273 281 285 289 291 292 290 291 292 294 294 296 296 296 293 289 288 289 290 290 288 287 285 284 284 283
261 261 262 263 263 264 261 263 260 261 265 267 263 264 265 268 268 268 266 268 272 271 271 278 282 284 287 292 295 297 298 296 299 298 295 295 295 293 291 290 289 289 289 288 286 285 284 282 281
264 265 264 264 266 264 264 267 265 263 263 262 260 263 267 269 269 270 266 267 267 272 275 275 278 281 289 295 296 297 298 299 297 296 294 294 295 294 295 294 292 291 290 289 288 286 284 283 282
264 265 267 265 265 264 267 271 266 267 261 259 262 265 266 267 267 265 263 261 265 268 271 276 284 286 291 295 297 298 299 299 297 294 295 298 298 298 297 293 293 292 290 288 286 285 284 284 284
263 265 267 266 265 268 272 269 265 268 265 261 261 262 265 265 265 261 258 261 269 275 280 283 285 287 292 296 299 300 299 298 297 300 299 300 303 301 298 294 292 291 290 289 289 288 288 287 286
261 265 264 272 274 273 270 269 271 269 271 270 266 265 266 264 262 262 265 270 274 278 282 283 285 289 291 292 298 301 300 302 302 300 302 303 303 300 296 293 291 290 290 289 290 288 287 285 284
263 261 268 271 272 270 270 271 270 271 273 270 269 271 270 264 264 267 270 273 275 277 282 285 287 289 292 298 303 301 301 303 303 302 302 302 302 299 296 295 294 293 293 292 291 289 288 286 285
270 271 265 266 270 271 272 272 273 273 271 273 275 273 273 273 273 272 274 277 279 284 286 286 287 290 295 300 301 302 303 304 303 303 302 301 300 298 296 295 295 294 293 291 290 288 287 287 286
267 268 264 265 265 269 270 271 274 271 273 278 279 278 277 274 275 278 281 282 285 288 289 287 291 298 301 300 301 301 303 303 303 301 301 300 299 298 296 295 295 294 294 292 291 290 290 289 289
263 262 261 263 265 262 267 268 271 274 279 280 283 284 281 277 280 281 283 285 287 290 291 293 296 296 297 299 300 301 302 303 302 300 300 298 297 296 296 296 295 294 294 293 292 293 292 292 291